Canberra, Capital Territory

4:02 AM AEST on July 25, 2016 (GMT +1000)
Canberra

Weather History for 94926 - August, 2013

Change the Weather History Date:

Sunday, August 18, 2013

  Actual Average Record
Temperature  
Mean Temperature 50 °F -  
Max Temperature 60 °F 59 °F - ()
Min Temperature 41 °F 36 °F - ()
Degree Days  
Heating Degree Days 14    
Moisture  
Dew Point 36 °F    
Average Humidity 55    
Maximum Humidity 81    
Minimum Humidity 27    
Precipitation  
Precipitation 0.00 in 0.07 in - ()
Sea Level Pressure  
Sea Level Pressure 29.90 in    
Wind  
Wind Speed 15 mph ()    
Max Wind Speed 28 mph    
Max Gust Speed 41 mph    
Visibility 6.2 miles    
Events      
T = Trace of Precipitation, MM = Missing Value Source: Averaged Metar Reports

Daily Weather History Graph

Daily Weather History Graph

Search for Another Location

Airport or City:

Trip Planner

Search our weather history database for the weather conditions in past years. The results will help you decide how hot, cold, wet, or windy it might be!

Date:

Astronomy

Aug. 18, 2013 Rise Set
Actual Time 6:41 AM AEST 5:33 PM AEST
Civil Twilight 6:14 AM AEST 5:59 PM AEST
Nautical Twilight 5:45 AM AEST 6:29 PM AEST
Astronomical Twilight 5:15 AM AEST 6:59 PM AEST
Moon 2:28 PM AEST (8/18) 3:50 AM AEST (8/18)
Length of Visible Light 11h 44m
Length of Day
10h 52m
Waxing Gibbous, 87% of the Moon is Illuminated
Aug 18
Waxing Gibbous
Aug 21
Full
Aug 28
Last Quarter
Sep 5
New
Sep 13
First Quarter

Hourly Weather History & Observations

Time (AEST) Temp. Windchill Dew Point Humidity Pressure Visibility Wind Dir Wind Speed Gust Speed Precip Events Conditions
12:00 AM 44 °F - 38 °F 72% 30.01 in - North 10.4 mph - -   Overcast
12:00 AM 44.6 °F 39.2 °F 37.4 °F 76% 29.98 in 6.2 mi North 10.4 mph - N/A   Scattered Clouds
12:30 AM 44.6 °F 39.7 °F 37.4 °F 76% 29.98 in 6.2 mi North 9.2 mph - N/A   Mostly Cloudy
1:00 AM 45 °F - 38 °F 68% 29.99 in - North 10.4 mph - -  
1:00 AM 44.6 °F 39.2 °F 37.4 °F 76% 29.95 in 6.2 mi North 10.4 mph - N/A   Mostly Cloudy
1:30 AM 46.4 °F 41.9 °F 37.4 °F 71% 29.95 in 6.2 mi North 9.2 mph - N/A   Mostly Cloudy
2:00 AM 48.2 °F - 37.4 °F 66% 29.95 in 6.2 mi North 15.0 mph - N/A   Overcast
2:30 AM 46.4 °F 39.8 °F 35.6 °F 66% 29.95 in 6.2 mi NNW 16.1 mph - N/A   Mostly Cloudy
3:00 AM 46 °F - 35 °F 56% 29.97 in - NW 16.1 mph - -   Overcast
3:00 AM 46.4 °F 39.8 °F 35.6 °F 66% 29.95 in 6.2 mi NW 16.1 mph - N/A   Scattered Clouds
3:30 AM 46.4 °F 39.8 °F 35.6 °F 66% 29.95 in 6.2 mi NNE 16.1 mph - N/A   Mostly Cloudy
4:00 AM 45 °F - 36 °F 60% 29.97 in - NNE 12.7 mph - -  
4:00 AM 44.6 °F 38.4 °F 35.6 °F 71% 29.95 in 6.2 mi NNE 12.7 mph - N/A   Scattered Clouds
4:30 AM 44.6 °F 37.8 °F 35.6 °F 71% 29.95 in 6.2 mi North 15.0 mph - N/A   Unknown
5:00 AM 44.6 °F 38.8 °F 35.6 °F 71% 29.95 in 6.2 mi North 11.5 mph - N/A   Unknown
5:30 AM 44.6 °F 38.8 °F 35.6 °F 71% 29.95 in 6.2 mi North 11.5 mph - N/A   Unknown
6:00 AM 42.8 °F 36.6 °F 35.6 °F 76% 29.95 in 6.2 mi NNW 11.5 mph - N/A   Partly Cloudy
6:30 AM 42.8 °F 36.2 °F 35.6 °F 76% 29.95 in 6.2 mi NNW 12.7 mph - N/A   Partly Cloudy
7:00 AM 42 °F - 36 °F 72% 30.00 in - NNW 16.1 mph - -  
7:00 AM 42.8 °F 35.1 °F 35.6 °F 76% 29.98 in 6.2 mi NNW 16.1 mph - N/A   Partly Cloudy
7:30 AM 42.8 °F 36.2 °F 37.4 °F 81% 29.95 in 6.2 mi North 12.7 mph - N/A   Partly Cloudy
8:00 AM 46.4 °F 40.4 °F 37.4 °F 71% 29.98 in 6.2 mi NNW 13.8 mph - N/A   Partly Cloudy
8:30 AM 48.2 °F - 37.4 °F 66% 29.98 in 6.2 mi NNW 15.0 mph - N/A   Partly Cloudy
9:00 AM 50 °F - 38 °F 52% 30.00 in - NNW 13.8 mph - -  
9:00 AM 50.0 °F - 37.4 °F 62% 29.95 in 6.2 mi NNW 13.8 mph - N/A   Partly Cloudy
9:30 AM 51.8 °F - 39.2 °F 62% 29.95 in 6.2 mi NW 18.4 mph - N/A   Partly Cloudy
10:00 AM 54 °F - 38 °F 42% 29.99 in - NW 18.4 mph - -  
10:00 AM 53.6 °F - 37.4 °F 54% 29.95 in 6.2 mi NW 18.4 mph - N/A   Partly Cloudy
10:30 AM 55.4 °F - 37.4 °F 51% 29.95 in 6.2 mi NW 20.7 mph - N/A   Partly Cloudy
11:00 AM 57.2 °F - 39.2 °F 51% 29.92 in 6.2 mi NW 23.0 mph - N/A   Partly Cloudy
11:30 AM 55.4 °F - 39.2 °F 54% 29.92 in 6.2 mi NW 23.0 mph - N/A   Partly Cloudy
11:59 AM 57.2 °F - 39.2 °F 51% 29.89 in 6.2 mi NW 23.0 mph 34.5 mph N/A   Partly Cloudy
12:00 PM 57 °F - 39 °F 40% 29.94 in - NW 23.0 mph - -  
12:00 PM 57.2 °F - 39.2 °F 51% 29.89 in 6.2 mi NW 23.0 mph 34.5 mph N/A   Partly Cloudy
12:30 PM 59.0 °F - 39.2 °F 48% 29.89 in 6.2 mi NW 24.2 mph - N/A   Partly Cloudy
12:41 PM 59.0 °F - 35.6 °F 42% 29.89 in 6.2 mi WNW 20.7 mph 32.2 mph N/A   Partly Cloudy
1:00 PM 60 °F - 35 °F 27% 29.89 in - WNW 25.3 mph - -  
1:00 PM 60.8 °F - 35.6 °F 39% 29.86 in 6.2 mi WNW 25.3 mph - N/A   Partly Cloudy
1:07 PM 59.0 °F - 33.8 °F 39% 29.86 in 6.2 mi WNW 24.2 mph 35.7 mph N/A   Partly Cloudy
1:30 PM 60.8 °F - 33.8 °F 36% 29.86 in 6.2 mi NW 27.6 mph 39.1 mph N/A   Partly Cloudy
2:00 PM 59.0 °F - 33.8 °F 39% 29.83 in 6.2 mi NW 27.6 mph 39.1 mph N/A   Partly Cloudy
2:34 PM 59.0 °F - 33.8 °F 39% 29.83 in 6.2 mi WNW 21.9 mph 36.8 mph N/A   Partly Cloudy
3:00 PM 59 °F - 35 °F 28% 29.86 in - NW 27.6 mph - -  
3:00 PM 59.0 °F - 35.6 °F 42% 29.83 in 6.2 mi NW 27.6 mph - N/A   Partly Cloudy
3:13 PM 59.0 °F - 35.6 °F 42% 29.83 in 6.2 mi WNW 25.3 mph 36.8 mph N/A   Partly Cloudy
3:30 PM 59.0 °F - 35.6 °F 42% 29.83 in 6.2 mi NW 27.6 mph 41.4 mph N/A   Partly Cloudy
4:00 PM 58 °F - 37 °F 34% 29.85 in - NW 24.2 mph - -  
4:00 PM 57.2 °F - 37.4 °F 48% 29.83 in 6.2 mi NW 24.2 mph - N/A   Partly Cloudy
4:11 PM 57.2 °F - 39.2 °F 51% 29.83 in 6.2 mi NW 23.0 mph 34.5 mph N/A   Partly Cloudy
4:36 PM 55.4 °F - 39.2 °F 54% 29.83 in 6.2 mi NW 24.2 mph 35.7 mph N/A   Partly Cloudy
5:00 PM 55.4 °F - 37.4 °F 51% 29.83 in 6.2 mi NW 21.9 mph - N/A   Partly Cloudy
5:07 PM 55.4 °F - 37.4 °F 51% 29.83 in 6.2 mi NW 20.7 mph 33.4 mph N/A   Partly Cloudy
5:30 PM 53.6 °F - 35.6 °F 51% 29.83 in 6.2 mi NW 19.6 mph - N/A   Partly Cloudy
6:00 PM 53 °F - 36 °F 40% 29.87 in - NW 17.3 mph - -  
6:00 PM 53.6 °F - 35.6 °F 51% 29.83 in 6.2 mi NW 17.3 mph - N/A   Partly Cloudy
6:05 PM 53.6 °F - 35.6 °F 51% 29.83 in 6.2 mi NW 19.6 mph 32.2 mph N/A   Unknown
6:30 PM 53.6 °F - 35.6 °F 51% 29.83 in 6.2 mi NW 17.3 mph - N/A   Unknown
7:00 PM 52 °F - 36 °F 42% 29.88 in - NW 11.5 mph - -  
7:00 PM 51.8 °F - 35.6 °F 54% 29.86 in 6.2 mi NW 11.5 mph - N/A   Unknown
7:30 PM 51.8 °F - 35.6 °F 54% 29.86 in 6.2 mi North 13.8 mph - N/A   Unknown
8:00 PM 50.0 °F - 35.6 °F 58% 29.86 in 6.2 mi NNW 12.7 mph - N/A   Unknown
8:30 PM 51.8 °F - 35.6 °F 54% 29.86 in 6.2 mi NNW 15.0 mph - N/A   Unknown
9:00 PM 52 °F - 35 °F 40% 29.88 in - NW 15.0 mph - -  
9:00 PM 51.8 °F - 35.6 °F 54% 29.83 in 6.2 mi NW 15.0 mph - N/A   Unknown
9:30 PM 51.8 °F - 33.8 °F 50% 29.83 in 6.2 mi NW 18.4 mph - N/A   Unknown
10:00 PM 52 °F - 34 °F 37% 29.85 in - NW 17.3 mph - -  
10:00 PM 51.8 °F - 33.8 °F 50% 29.83 in 6.2 mi NW 17.3 mph - N/A   Unknown
10:30 PM 51.8 °F - 33.8 °F 50% 29.80 in 6.2 mi NNW 24.2 mph - N/A   Unknown
11:00 PM 51.8 °F - 33.8 °F 50% 29.80 in 6.2 mi NW 23.0 mph - N/A   Unknown
11:30 PM 51.8 °F - 32.0 °F 47% 29.80 in 6.2 mi NW 20.7 mph - N/A   Unknown